Miscellaneous Local Product
Issued by NWS North Platte, NE

Home | Current Version | Previous Version | Text Only | Print | Product List | Glossary On
Versions: 1 2 3 4 5 6 7 8 9 10 11 12 13 14 15 16 17 18 19 20 21 22 23 24 25 26 27 28 29 30 31 32 33 34 35 36 37 38 39 40 41 42 43 44 45 46 47 48 49 50
000
AXUS43 KLBF 300310
MISLBF


WESTERN AND NORTH CENTRAL NEBRASKA HOURLY WEATHER ROUNDUP
NATIONAL WEATHER SERVICE NORTH PLATTE NE
1000 PM CDT MON SEP 29 2014

***STATIONS NOT REPORTING VARIABLES SUCH AS SKY/WEATHER OR
PRESSURE ARE PROVIDED BY THE NEBRASKA DEPARTMENT OF
ROADS...RAWS...AND APRS NETWORKS...AND ARE NOT UNDER
NATIONAL WEATHER SERVICE QUALITY CONTROL***

...OBSERVATIONS IN AND NEAR THE EASTERN PANHANDLE OF NEBRASKA...

CITY           SKY/WX    TMP DP  RH WIND       PRES   REMARKS
PINE RIDGE     TSTM      58  57  97 NE13      29.81F FOG
CHADRON        HVY RAIN  52  52 100 N9        29.81F FOG
ALLIANCE       RAIN      55  54  96 N14       29.76F FOG
SIDNEY         LGT RAIN  57  55  93 N12       29.73F
WHITECLAY        N/A     56  55  95 N8          N/A
RUSHVILLE        N/A     57  55  95 NE28        N/A
CRESCENT LAKE    N/A     56  55  95 NW3G40      N/A
LISCO            N/A     61  57  88 N13         N/A
BIG SPRINGS      N/A     73  55  52 SE15        N/A
$$

...OBSERVATIONS IN NORTH CENTRAL NEBRASKA...

CITY           SKY/WX    TMP DP  RH WIND       PRES   REMARKS
VALENTINE      CLOUDY    66  60  81 E10       29.84F
THEDFORD       CLOUDY    73  54  51 SE25G32   29.84F
AINSWORTH      CLOUDY    69  51  52 SE16G23   29.87S
O`NEILL        MOCLDY    64  59  83 E8        29.91S
ORD            CLOUDY    70  53  54 SE12      29.89R
BROKEN BOW     MOCLDY    69  53  56 SE13G22   29.88S
SPRINGVIEW       N/A     66  61  84 E9          N/A
ROSE             N/A     74  57  56 E12         N/A
NEWPORT          N/A     64  62  94 E8          N/A
SARGENT          N/A     69  55  60 CALM        N/A
COMSTOCK         N/A     75  56  51 SE13        N/A
CHAMBERS         N/A     67  55  64 E8          N/A
EWING            N/A     67  60  77 E5          N/A
$$

...OBSERVATIONS IN SOUTHWEST NEBRASKA AND FAR NORTHEAST COLORADO...

CITY           SKY/WX    TMP DP  RH WIND       PRES   REMARKS
WRAY           HVY RAIN  59  59 100 SW9       29.83R
HOLYOKE        HVY RAIN  59  55  88 S3        29.78S
IMPERIAL       TSTM      63  56  78 SW22G39   29.81R
OGALLALA       CLOUDY    74  54  49 SE25G37   29.73F
NORTH PLATTE   CLOUDY    72  53  51 SE20G25   29.81R
MCCOOK         CLOUDY    72  53  51 SE18G28   29.81S
LEXINGTON      PTCLDY    70  55  57 SE15G24   29.86F
PAXTON           N/A     73  55  52 SE20        N/A
SUTHERLAND       N/A     76  52  42 SE23        N/A
BRADY            N/A     71  56  58 N6G14       N/A
GOTHENBURG       N/A     72  52  48 SE10        N/A
CALLAWAY         N/A     70  56  61 SE21        N/A
$$

...SOME WEATHER OBSERVATIONS FROM AROUND THE REGION...

CITY           SKY/WX    TMP DP  RH WIND       PRES   REMARKS
DENVER         CLOUDY    50  45  83 N22       29.85R
LARAMIE        CLOUDY    41  39  93 W8        29.93S
CHEYENNE       LGT RAIN  45  41  86 N15G23    29.87F
SCOTTSBLUFF    LGT RAIN  55  55 100 NW16      29.77F
RAPID CITY     LGT RAIN  53  52  96 E3        29.88F VSB 1/4
PIERRE         CLOUDY    63  55  75 E16       29.87F
WINNER           N/A     65  60  84 E17       29.86F
SIOUX FALLS    PTCLDY    58  53  84 E15       29.99S
OMAHA          CLEAR     64  59  83 N3        29.93F
GRAND ISLAND   MOCLDY    69  53  56 SE10      29.92R
KANSAS CITY    CLEAR     69  58  67 SE7       29.95F
WICHITA        PTCLDY    74  58  57 SE13      29.93R
HAYS           PTCLDY    70  54  56 SE14      29.88F
LIBERAL        CLOUDY    73  52  46 S12       29.94R
GOODLAND       LGT RAIN  57  55  93 SW14G23   29.91R
$$



USA.gov is the U.S. government's official web portal to all federal, state and local government web resources and services.